Regional Weather Roundup
Issued by NWS

Home | Current Version | Previous Version | Graphics & Text | Print | Product List | Glossary On
Versions: 1 2 3 4 5 6 7 8 9 10 11 12 13 14 15 16 17 18 19 20 21 22 23 24 25 26 27 28 29 30 31 32 33 34 35 36 37 38 39 40 41 42 43 44 45 46 47 48 49 50
000
ASUS43 KOAX 200402
RWRNE

WEATHER ROUNDUP FOR NEBRASKA
NATIONAL WEATHER SERVICE OMAHA NE
1000 PM CST THU JAN 19 2017

NOTES: SATELLITE DATA IS BEING USED TO AUGMENT CLOUD COVER ABOVE
       12000 FEET.
       "FAIR" INDICATES FEW OR NO CLOUDS BELOW 12,000 FEET WITH NO
       SIGNIFICANT WEATHER AND/OR OBSTRUCTIONS TO VISIBILITY.

  * THESE STATIONS DO NOT REPORT WEATHER SUCH AS RAIN...SNOW OR FOG.

NEZ001>004-019>022-054>056-200500-
NEBRASKA PANHANDLE

CITY           SKY/WX    TMP DP  RH WIND       PRES   REMARKS
SCOTTSBLUFF    CLOUDY    31  24  75 NW5       29.52S WCI  26
ALLIANCE       CLOUDY    23  19  85 CALM      29.48F
CHADRON        CLOUDY    30  23  75 W5        29.50R WCI  25
KIMBALL        CLEAR     36  28  73 NW12G18   29.51F WCI  28
SIDNEY         CLOUDY    27  22  81 W6        29.52F WCI  20
$$

NEZ057>060-069>072-079>082-200500-
SOUTHWEST NEBRASKA

CITY           SKY/WX    TMP DP  RH WIND       PRES   REMARKS
NORTH PLATTE   CLOUDY    38  36  92 SW7       29.55F WCI  33
IMPERIAL       FOG       34  34 100 S7        29.54F VSB 1/4 WCI  28
LEXINGTON      FOG       37  35  95 CALM      29.57R VSB 1/2
MCCOOK         FOG       34  34 100 CALM      29.57S VSB 1/4
OGALLALA       FOG       33  32  96 SW6       29.54F VSB 3/4 WCI  27
$$

NEZ005>010-023>029-035>040-094-200500-
NORTH CENTRAL NEBRASKA

CITY           SKY/WX    TMP DP  RH WIND       PRES   REMARKS
VALENTINE      CLEAR     32  29  88 S9        29.46F FOG     WCI  24
AINSWORTH      CLOUDY    36  36 100 SW17      29.48F FOG     WCI  25
BROKEN BOW     CLOUDY    40  38  93 SW12      29.54R WCI  33
O`NEILL        CLOUDY    41  40  94 S13       29.53S
ORD            CLOUDY    40  37  89 S6        29.55S
THEDFORD       CLOUDY    35  34  96 SW18      29.51F FOG     WCI  24
$$

NEZ041-046>049-061>064-073>077-083>087-200500-
SOUTH CENTRAL NEBRASKA

CITY           SKY/WX    TMP DP  RH WIND       PRES   REMARKS
GRAND ISLAND   FOG       38  38 100 SE7       29.57F VSB 3/4 WCI  33
AURORA         FOG       38  38 100 SE6       29.58F VSB 1/4 WCI  33
HASTINGS       FOG       39  39 100 S5        29.58F VSB 1/2
HEBRON         FOG       39  39  99 SE3       29.61F VSB 3/4
HOLDREGE       CLOUDY    39  38  97 SW3       29.56S FOG
KEARNEY *      CLOUDY    37  36  93 S3        29.57R
YORK           FOG       39  39 100 SE9       29.59F VSB 1/2 WCI  33
$$

NEZ011>018-030>034-042>045-200500-
NORTHEAST NEBRASKA

CITY           SKY/WX    TMP DP  RH WIND       PRES   REMARKS
NORFOLK        CLOUDY    38  37  97 SE6       29.57F WCI  33
ALBION         CLOUDY   N/A N/A N/A S7        29.57F
BLAIR          FOG       39  39  98 E5        29.62F VSB 1/4
FREMONT        FOG       39  39 100 E3        29.62F VSB 1/2
TEKAMAH        FOG       36  35  96 S3        29.64F VSB 1/4
WAYNE          CLOUDY    38  38  99 SE8       29.60S FOG     WCI  32
$$

NEZ050>053-065>068-078-088>093-200500-
SOUTHEAST NEBRASKA

CITY           SKY/WX    TMP DP  RH WIND       PRES   REMARKS
LINCOLN        CLOUDY    40  40 100 SE7       29.63F FOG
OMAHA EPPLEY   FOG       39  36  89 CALM      29.64F VSB 1/2
BEATRICE       FOG       40  40 100 E5        29.63F VSB 3/4
FALLS CITY     FOG       42  42 100 CALM      29.64F VSB 1/4
NEBRASKA CITY  FOG       40  40 100 CALM      29.65F VSB 1/2
PLATTSMOUTH    FOG       39  37  93 CALM      29.64F VSB 3/4
$$

NEZ044-045-051>053-067-200500-
OMAHA AREA

CITY           SKY/WX    TMP DP  RH WIND       PRES   REMARKS
OMAHA EPPLEY   FOG       39  36  89 CALM      29.64F VSB 1/2
BLAIR          FOG       39  39  98 E5        29.62F VSB 1/4
FREMONT        FOG       39  39 100 E3        29.62F VSB 1/2
MILLARD        CLOUDY    42  41  97 CALM      29.64F FOG
OFFUTT AFB     FOG       39  39 100 E3        29.64F VSB 1/2
PLATTSMOUTH    FOG       39  37  93 CALM      29.64F VSB 3/4
WAHOO          FOG       38  37  97 SE7       29.62F VSB 1/4 WCI  32
$$



USA.gov is the U.S. government's official web portal to all federal, state and local government web resources and services.